Blackpool, United Kingdom

3:39 PM GMT on February 20, 2017 (GMT +0000)
Blackpool

Weather History for EGNH - November, 2013

Change the Weather History Date:

Monday, November 11, 2013

  Actual Average Record
Temperature  
Mean Temperature 46 °F -  
Max Temperature 55 °F 46 °F 57 °F (2005)
Min Temperature 36 °F 40 °F 29 °F (2016)
Degree Days  
Heating Degree Days 20    
Moisture  
Dew Point 50 °F    
Average Humidity 97    
Maximum Humidity 100    
Minimum Humidity 79    
Precipitation  
Precipitation 0.04 in - - ()
Sea Level Pressure  
Sea Level Pressure 30.03 in    
Wind  
Wind Speed 11 mph ()    
Max Wind Speed 18 mph    
Max Gust Speed -    
Visibility 4.4 miles    
Events Rain    
Averages and records for this station are not official NWS values.
T = Trace of Precipitation, MM = Missing Value Source: Averaged Metar Reports

Daily Weather History Graph

Daily Weather History Graph

Search for Another Location

Airport or City:

Trip Planner

Search our weather history database for the weather conditions in past years. The results will help you decide how hot, cold, wet, or windy it might be!

Date:

Astronomy

Nov. 11, 2013 Rise Set
Actual Time 7:31 AM GMT 4:20 PM GMT
Civil Twilight 6:52 AM GMT 4:58 PM GMT
Nautical Twilight 6:10 AM GMT 5:41 PM GMT
Astronomical Twilight 5:28 AM GMT 6:22 PM GMT
Moon 1:42 PM GMT (11/11) 12:05 AM GMT (11/11)
Length of Visible Light 10h 06m
Length of Day
8h 48m
Waxing Gibbous, 64% of the Moon is Illuminated
Nov 11
Waxing Gibbous
Nov 17
Full
Nov 25
Last Quarter
Dec 3
New
Dec 9
First Quarter

Hourly Weather History & Observations

Time (GMT) Temp. Windchill Dew Point Humidity Pressure Visibility Wind Dir Wind Speed Gust Speed Precip Events Conditions
12:00 AM 42 °F - 38 °F 79%  in - SE 15.0 mph - -  
3:00 AM 44 °F - 41 °F 86%  in - SSE 18.4 mph - -  
6:00 AM 46 °F - 45 °F 93%  in - SSE 18.4 mph - -  
6:20 AM 46.4 °F 39.8 °F 44.6 °F 93% 29.95 in 6.2 mi SE 16.1 mph - N/A   Scattered Clouds
6:50 AM 46.4 °F 39.5 °F 46.4 °F 100% 29.95 in 6.2 mi SE 17.3 mph - N/A Rain Light Rain
7:20 AM 46.4 °F 39.8 °F 46.4 °F 100% 29.95 in 5.0 mi SE 16.1 mph - N/A Rain Light Rain
7:50 AM 48.2 °F - 46.4 °F 93% 29.95 in 5.0 mi SE 15.0 mph - N/A Rain Light Rain
8:20 AM 48.2 °F - 46.4 °F 93% 29.95 in 3.7 mi SE 13.8 mph - N/A Rain Light Rain
8:50 AM 48.2 °F - 48.2 °F 100% 29.98 in 3.1 mi SE 13.8 mph - N/A Rain Light Rain
9:00 AM 48 °F - 48 °F 98%  in - SSE 16.1 mph - -  
9:20 AM 50.0 °F - 48.2 °F 94% 29.98 in 3.1 mi SE 12.7 mph - N/A   Light Drizzle
9:50 AM 50.0 °F - 50.0 °F 100% 29.98 in 1.9 mi SE 9.2 mph - N/A   Light Drizzle
10:20 AM 50.0 °F - 50.0 °F 100% 30.01 in 1.9 mi SSE 11.5 mph - N/A Rain Light Rain
10:50 AM 51.8 °F - 50.0 °F 94% 30.01 in 2.2 mi SSE 11.5 mph - N/A Rain Light Rain
11:20 AM 51.8 °F - 51.8 °F 100% 30.01 in 1.2 mi SSE 10.4 mph - N/A Rain Light Rain
11:50 AM 51.8 °F - 51.8 °F 100% 30.01 in 1.1 mi South 10.4 mph - N/A Rain Light Rain
12:00 PM 52 °F - 52 °F 100%  in - South 9.2 mph - -  
12:20 PM 53.6 °F - 53.6 °F 100% 30.01 in 1.1 mi South 10.4 mph - N/A Rain Light Rain
12:50 PM 53.6 °F - 53.6 °F 100% 30.01 in 0.6 mi SSW 11.5 mph - N/A Rain Light Rain
1:20 PM 53.6 °F - 53.6 °F 100% 30.01 in 0.6 mi SW 11.5 mph - N/A   Light Drizzle
1:50 PM 55.4 °F - 53.6 °F 94% 30.01 in 5.0 mi WSW 13.8 mph - N/A   Mostly Cloudy
2:50 PM 53.6 °F - 53.6 °F 100% 30.04 in 6.2 mi WSW 9.2 mph - N/A   Mostly Cloudy
3:00 PM 53 °F - 53 °F 100%  in - West 11.5 mph - -  
3:20 PM 53.6 °F - 53.6 °F 100% 30.04 in 6.2 mi WSW 10.4 mph - N/A   Mostly Cloudy
3:50 PM 53.6 °F - 53.6 °F 100% 30.06 in 6.2 mi West 11.5 mph - N/A   Scattered Clouds
4:20 PM 51.8 °F - 51.8 °F 100% 30.06 in 6.2 mi NW 9.2 mph - N/A   Light Drizzle
4:50 PM 51.8 °F - 51.8 °F 100% 30.06 in 6.2 mi Variable 3.5 mph - N/A   Mostly Cloudy
5:20 PM 51.8 °F - 51.8 °F 100% 30.09 in 6.2 mi West 2.3 mph - N/A   Mostly Cloudy
5:50 PM 51.8 °F - 50.0 °F 94% 30.09 in 6.2 mi Calm Calm - N/A   Mostly Cloudy
6:20 PM 50.0 °F - 50.0 °F 100% 30.09 in 6.2 mi South 5.8 mph - N/A   Scattered Clouds
6:50 PM 50.0 °F - 50.0 °F 100% 30.12 in 6.2 mi South 5.8 mph - N/A   Partly Cloudy
7:20 PM 51.8 °F - 50.0 °F 94% 30.12 in 6.2 mi SW 6.9 mph - N/A   Partly Cloudy
7:50 PM 51.8 °F - 50.0 °F 94% 30.12 in 6.2 mi SW 6.9 mph - N/A Rain Light Rain Showers
8:20 PM 51.8 °F - 50.0 °F 94% 30.12 in 6.2 mi SW 8.1 mph - N/A Rain Light Rain Showers
8:50 PM 50.0 °F - 50.0 °F 100% 30.12 in 6.2 mi SW 8.1 mph - N/A Rain Light Rain Showers
9:00 PM 51 °F - 50 °F 93%  in - WSW 9.2 mph - -